sat.trackr.live / text

‹ back to catalog

STARLINK-2112

NORAD 47391 · 2021-005AU

PAYLOAD ACTIVE UNKNOWN

§ Identity

Operator
Country
US
Launch date
2021-01-20
Launch site
AFETR
Launch vehicle
Mass (kg)
RCS (m²)

Purposes: comms

External: N2YO · Heavens-Above · Gunter

§ Orbital elements

Epoch: 2026-09-19T15:22:26.637312Z

Period
95.01 min
Inclination
53.0637°
Eccentricity
0.0002217
Mean motion
15.15649914 rev/d
Perigee alt
517.5 km
Apogee alt
520.5 km
Semi-major
6,897.1 km
B*
1.1595e-3
RAAN
234.0385°
Arg perigee
74.1281°
Mean anomaly
285.9956°
Rev number
31,279

§ Raw data

STARLINK-21121 47391U 21005AU  26262.64058608  .00022074  00000+0  11595-2 0  99942 47391  53.0637 234.0385 0002217  74.1281 285.9956 15.15649914312791

JSON: /api/v1/satellites/47391 · /tle

For live sub-satellite position, see the globe view (requires WebGL).

§ Visibility from observer

Set your observer location to see the next 7 days of passes ≥ 10°. The values pass through the URL so the page stays shareable.

No JS? Fill the form by hand. The geolocation button needs JavaScript.